Arvin
DateTemperatureDew Point
05/05 - 07:15 AM54.4°51.0°
05/05 - 07:00 AM54.4°50.8°
05/05 - 06:45 AM54.3°50.4°
05/05 - 06:30 AM54.6°50.5°
05/05 - 06:15 AM54.8°50.6°
05/05 - 06:00 AM55.0°51.1°
05/05 - 05:45 AM55.4°51.3°
05/05 - 05:30 AM55.9°51.6°
05/05 - 05:15 AM56.4°51.4°
05/05 - 05:00 AM56.7°51.4°
05/05 - 04:45 AM56.6°50.1°
05/05 - 04:30 AM56.6°50.0°
05/05 - 04:15 AM56.5°50.0°
05/05 - 04:00 AM56.6°50.7°
05/05 - 03:45 AM56.7°51.1°
05/05 - 03:30 AM56.7°50.9°
05/05 - 03:15 AM56.9°50.8°
05/05 - 03:00 AM57.0°50.7°
05/05 - 02:45 AM57.2°50.5°
05/05 - 02:30 AM57.5°50.3°
05/05 - 02:15 AM57.6°49.6°
05/05 - 02:00 AM57.8°49.5°
05/05 - 01:45 AM58.0°49.4°
05/05 - 01:30 AM58.3°49.4°
05/05 - 01:15 AM58.6°49.3°
05/05 - 01:00 AM58.8°49.0°
05/05 - 12:45 AM59.1°48.7°
05/05 - 12:30 AM59.3°48.5°
05/05 - 12:15 AM59.5°48.2°
05/05 - 12:00 AM59.7°48.7°
05/04 - 11:45 PM59.9°49.7°
05/04 - 11:30 PM60.1°49.9°
05/04 - 11:15 PM60.3°50.0°
05/04 - 11:00 PM60.5°50.2°
05/04 - 10:45 PM60.9°50.0°
05/04 - 10:30 PM61.1°49.9°
05/04 - 10:15 PM61.3°49.5°
05/04 - 10:00 PM61.3°48.5°
05/04 - 09:45 PM61.1°48.9°
05/04 - 09:30 PM60.9°49.7°
05/04 - 09:15 PM60.7°49.9°
05/04 - 09:00 PM60.9°50.4°
05/04 - 08:45 PM61.5°50.3°
05/04 - 08:30 PM62.3°50.0°
05/04 - 08:15 PM63.3°49.8°
05/04 - 08:00 PM64.0°49.5°
05/04 - 07:45 PM64.7°49.5°
05/04 - 07:30 PM65.1°48.5°
05/04 - 07:15 PM65.3°48.1°
05/04 - 07:00 PM65.7°48.5°
05/04 - 06:45 PM66.6°49.2°
05/04 - 06:30 PM67.3°48.7°
05/04 - 06:15 PM67.8°48.6°
05/04 - 06:00 PM68.6°48.3°
05/04 - 05:45 PM68.6°48.2°
05/04 - 05:30 PM69.6°48.8°
05/04 - 05:15 PM70.9°49.0°
05/04 - 05:00 PM71.9°49.5°
05/04 - 04:45 PM72.3°49.5°
05/04 - 04:30 PM71.8°49.8°
05/04 - 04:15 PM70.6°49.5°
05/04 - 04:00 PM71.0°49.4°
05/04 - 03:45 PM72.2°50.1°
05/04 - 03:30 PM71.3°49.7°
05/04 - 03:15 PM71.4°50.2°
05/04 - 03:00 PM70.4°49.9°
05/04 - 02:45 PM70.9°49.2°
05/04 - 02:30 PM71.2°49.9°
05/04 - 02:15 PM71.4°49.7°
05/04 - 02:00 PM70.5°50.2°
05/04 - 01:45 PM69.5°49.9°
05/04 - 01:30 PM69.6°49.9°
05/04 - 01:15 PM71.3°50.8°
05/04 - 01:00 PM72.3°51.2°
05/04 - 12:45 PM71.2°50.7°
05/04 - 12:30 PM70.5°50.7°
05/04 - 12:15 PM68.2°50.1°
05/04 - 12:00 PM69.4°50.7°
05/04 - 11:45 AM66.5°50.1°
05/04 - 11:30 AM67.9°50.0°
05/04 - 11:15 AM69.1°50.5°
05/04 - 11:00 AM67.2°49.9°
05/04 - 10:45 AM64.9°49.5°
05/04 - 10:30 AM65.1°49.3°
05/04 - 10:15 AM64.7°49.1°
05/04 - 10:00 AM63.1°48.4°
05/04 - 09:45 AM62.3°48.0°
05/04 - 09:30 AM61.6°48.0°
05/04 - 09:15 AM60.9°47.2°
05/04 - 09:00 AM60.6°47.1°
05/04 - 08:45 AM60.0°46.9°
05/04 - 08:30 AM59.6°46.6°
05/04 - 08:15 AM59.3°46.4°
05/04 - 08:00 AM58.9°46.3°
05/04 - 07:45 AM58.5°46.2°
05/04 - 07:30 AM58.1°46.3°
05/04 - 07:15 AM57.8°46.1°
05/04 - 07:00 AM57.2°46.4°
05/04 - 06:45 AM56.6°46.2°
05/04 - 06:30 AM56.2°45.4°
05/04 - 06:15 AM56.0°44.8°
05/04 - 06:00 AM56.1°44.9°
05/04 - 05:45 AM56.2°45.5°
05/04 - 05:30 AM56.3°45.6°
05/04 - 05:15 AM56.3°46.0°
05/04 - 05:00 AM56.1°44.8°
05/04 - 04:45 AM55.7°44.6°
05/04 - 04:30 AM55.1°45.1°
05/04 - 04:15 AM54.2°46.1°
05/04 - 04:00 AM56.3°49.0°
05/04 - 03:45 AM57.7°44.6°
05/04 - 03:30 AM57.6°43.9°
05/04 - 03:15 AM57.3°44.1°
05/04 - 03:00 AM57.1°44.5°
05/04 - 02:45 AM56.8°45.0°
05/04 - 02:30 AM56.7°44.9°
05/04 - 02:15 AM56.6°45.6°
05/04 - 02:00 AM56.6°46.1°
05/04 - 01:45 AM57.1°46.2°
05/04 - 01:30 AM58.4°46.2°
05/04 - 01:15 AM59.4°46.8°
05/04 - 01:00 AM59.8°47.1°
05/04 - 12:45 AM59.9°46.8°
05/04 - 12:30 AM60.2°46.7°
05/04 - 12:15 AM60.4°46.8°
05/04 - 12:00 AM60.7°46.8°
05/03 - 11:45 PM60.9°45.8°
05/03 - 11:30 PM60.9°45.3°
05/03 - 11:15 PM60.8°45.5°
05/03 - 11:00 PM60.8°45.2°
05/03 - 10:45 PM61.0°44.9°
05/03 - 10:30 PM61.6°44.8°
05/03 - 10:15 PM62.4°44.9°
05/03 - 10:00 PM62.9°44.8°
05/03 - 09:45 PM63.2°44.9°
05/03 - 09:30 PM63.5°44.7°
05/03 - 09:15 PM64.1°44.7°
05/03 - 09:00 PM64.4°44.7°
05/03 - 08:45 PM64.8°45.1°
05/03 - 08:30 PM65.3°45.0°
05/03 - 08:15 PM65.9°45.0°
05/03 - 08:00 PM66.7°45.2°
05/03 - 07:45 PM67.8°45.7°
05/03 - 07:30 PM68.8°46.6°
05/03 - 07:15 PM70.0°47.0°
05/03 - 07:00 PM71.6°48.9°
05/03 - 06:45 PM72.4°49.7°
05/03 - 06:30 PM73.2°50.3°
05/03 - 06:15 PM73.7°50.0°
05/03 - 06:00 PM74.5°50.9°
05/03 - 05:45 PM75.1°50.9°
05/03 - 05:30 PM76.0°51.5°
05/03 - 05:15 PM76.6°51.7°
05/03 - 05:00 PM78.2°52.9°
05/03 - 04:45 PM79.7°53.3°
05/03 - 04:30 PM80.0°53.4°
05/03 - 04:15 PM80.8°53.6°
05/03 - 04:00 PM80.5°53.5°
05/03 - 03:45 PM80.5°53.3°
05/03 - 03:30 PM80.5°53.6°
05/03 - 03:15 PM80.8°53.5°
05/03 - 03:00 PM80.6°53.4°
05/03 - 02:45 PM81.2°53.3°
05/03 - 02:30 PM80.8°53.4°
05/03 - 02:15 PM81.0°53.7°
05/03 - 02:00 PM80.5°54.2°
05/03 - 01:45 PM80.3°53.8°
05/03 - 01:30 PM80.6°54.2°
05/03 - 01:15 PM79.4°53.8°
05/03 - 01:00 PM79.5°53.7°
05/03 - 12:45 PM78.9°53.9°
05/03 - 12:30 PM78.2°53.9°
05/03 - 12:15 PM77.0°53.8°
05/03 - 12:00 PM76.7°53.7°
05/03 - 11:45 AM76.0°53.8°
05/03 - 11:30 AM74.7°53.7°
05/03 - 11:15 AM74.2°53.3°
05/03 - 11:00 AM73.9°53.6°
05/03 - 10:45 AM73.4°53.5°
05/03 - 10:30 AM72.5°53.5°
05/03 - 10:15 AM71.3°53.0°
05/03 - 10:00 AM69.7°52.4°
05/03 - 09:45 AM68.6°52.6°
05/03 - 09:30 AM67.4°52.2°
05/03 - 09:15 AM66.6°52.3°
05/03 - 09:00 AM65.7°52.5°
05/03 - 08:45 AM64.1°52.1°
05/03 - 08:30 AM62.9°51.6°
05/03 - 08:15 AM61.9°51.4°
05/03 - 08:00 AM60.9°51.2°